COSMOS 2251 DEB, 36049

Orbit data source: Space-Track

COSMOS 2251 DEB, 36049 is space debris in LEO originally from a launch on Wed, 16 Jun 1993 UTC launched from the Plesetsk Missile And Space Complex (PKMTR). The debris from Iridium 33, an American commercial communications satellite, has been tracked extensively since its accidental collision with the defunct Russian satellite Cosmos 2251 in 2009. This event, occurring at high speed in low Earth orbit (LEO), generated thousands of pieces of space debris, significantly increasing the risk of further collisions. The Iridium 33 debris cloud has impacted space traffic management and orbital debris mitigation strategies, making it a subject of ongoing study in space situational awareness.

Loading next visibility...
Identifier
36049, 1993-036AXL
Orbit
LEO
Country
Flag of CISCIS
Related business
Manufacturer
Unknown
Mission
Spacecraft
Bus & Motor
Unknown
Mass
Unknown
Launch date (UTC)
1993-06-16 (33 years ago)
Launch vehicle
Unknown
Launch site
Plesetsk Missile And Space Complex (PKMTR)
Object type
Payload
Rocket body
Debris
Shape & HBR
Unknown shape, 0.1 m
Radar Cross Section
Small (<0.1 m²)

Expand to show TLE details & history
Last TLE update: 12 hours ago

TLE from 12 hours ago
0 COSMOS 2251 DEB
1 36049U 93036AXL 26178.05499726  .00005074  00000-0  96700-3 0  9990
2 36049  74.0300 102.4277 0011335 147.4497 212.7372 14.64252968882368
Epoch: 2026-06-27T01:19Z
TLE epoch observation values (Epoch: 2026-06-27T01:19:11.763Z)
Latitude
-0.00001°
Longitude
167.45403°
Altitude
688.853 km
Speed
7.509 km/s
True Right ascension
06h 49m 42s
True Declination
0° 00' 00"
Sunlit
Object was in daylight at epoch
Visualization orbit readout
Latitude
Unknown
Longitude
Unknown
Altitude
Unknown
Speed
Unknown
Apparent Right ascension
Unknown
Apparent Declination
Unknown
Sunlit
N/A
Visualization observer readout
Local Sidereal Time
00:23:33
Azimuth
Unknown
Elevation
Unknown
Doppler factor
Unknown
Orbital elements
Apogee altitude
685.065 km
Perigee altitude
669.071 km
Semi-major axis
7,055.205 km
Eccentricity
0.00113
Inclination
74.03°
RAAN
102.4277°
Arg. of periapsis
147.4497°
True anomaly
212.66704°
Mean anomaly
212.7372°
Eccentric anomaly
212.70211°
Mean motion
3.66251 °/min
Orbital period
98.29 mins
BSTAR
0.000967

Documentation

Showing up to 5 results
|